[[{"header":{"parameterUnit":"m.s-1","parameterCategory":1,"la1":30.2991,"la2":30.254,"lo1":-89.0895,"lo2":-89.0444,"dy":0.0017,"dx":0.0017,"nx":28,"ny":28,"refTime":"2025-07-07T03:00:00:Z","depth":0,"parameterNumber":2,"parameterNumberName":"U-component_of_WINDS"},"data":[0,0,0,0,0,0,0,0,0,0,0,0,0,0,0,0,0,0,0,0,0,0,0,0,0,0,0,0,0,0,0,0,0,0,0,0,0,0,0,0,0,0,0,0,0,0,0,0,0,0,0,0,0,0,0,0,0,0,2.3107,2.3108,0,2.3219,2.322,2.3221,2.3256,2.3256,2.3255,2.3255,2.3369,2.3372,2.3376,0,0,0,0,0,0,0,0,0,0,0,0,0,2.2924,2.2927,2.3107,2.3108,2.311,2.3218,2.322,2.3221,2.3256,2.3256,2.3255,2.3254,2.3368,2.3372,2.3376,0,0,0,0,0,0,0,0,0,0,0,0,0,2.3016,2.2928,2.3107,2.314,2.3144,2.3218,2.322,2.3222,2.3256,2.3256,2.3255,2.3254,2.3366,2.3372,2.3377,2.3425,0,0,2.3393,2.3395,0,0,0,0,0,0,0,0,2.3011,2.3023,2.3134,2.3138,2.3143,2.3223,2.3197,2.329,2.3257,2.3214,2.3255,2.3254,2.3321,2.333,2.3353,2.3431,2.3435,2.3393,2.3397,2.3399,2.34,0,0,0,0,0,0,0,2.3004,2.3018,2.3151,2.3135,2.3141,2.315,2.3162,2.3215,2.327,2.3218,2.322,2.3233,2.3323,2.3347,2.3355,2.3437,2.3393,2.3398,2.3401,2.3403,2.356,2.3561,0,0,0,0,0,0,2.2992,2.3012,2.3148,2.3154,2.3073,2.3153,2.3167,2.3198,2.327,2.328,2.3234,2.3234,2.3339,2.3349,2.336,2.342,2.3399,2.3404,2.3407,2.3559,2.356,2.3561,0,0,0,0,0,0,2.2988,2.3004,2.3143,2.3084,2.3103,2.3157,2.3192,2.32,2.3225,2.3282,2.3292,2.3248,2.3338,2.3352,2.3408,2.3425,2.3406,2.3411,2.3558,2.3559,2.356,2.3542,0,0,0,0,0,0,2.2983,2.3002,2.3021,2.3084,2.3106,2.319,2.3193,2.3203,2.3234,2.3236,2.3298,2.3308,2.3339,2.34,2.3414,2.3432,2.3415,2.3556,2.3558,2.356,2.3542,2.3543,2.3544,0,0,0,0,0,2.2976,2.3012,2.3022,2.3038,2.3131,2.3191,2.3203,2.3238,2.3235,2.3254,2.3291,2.3306,2.3421,2.3406,2.3421,2.3441,2.3555,2.3558,2.356,2.3541,2.3543,2.3544,0,0,0,0,0,0,2.2949,2.3021,2.3033,2.309,2.3134,2.3197,2.3222,2.3238,2.3284,2.3284,2.3325,2.3339,2.3392,2.3423,2.3404,2.3491,2.3489,2.3494,2.3469,2.3471,2.3472,2.3463,2.342,0,0,0,0,0,2.295,2.2993,2.3053,2.3098,2.312,2.3167,2.3195,2.3218,2.3265,2.3283,2.3325,2.337,2.3416,2.3445,2.3491,2.3546,2.356,2.3568,2.3569,2.3569,2.3573,2.3604,2.3607,2.3568,2.3568,2.3568,0,0,2.2952,2.2996,2.3021,2.3094,2.3131,2.3174,2.3182,2.3228,2.326,2.329,2.3346,2.3377,2.3431,2.3486,2.3513,2.3513,2.3587,2.3572,2.3572,2.3576,2.3606,2.361,2.3613,2.357,2.3569,2.3569,0,0,2.2977,2.3016,2.3057,2.3093,2.3149,2.318,2.319,2.325,2.3272,2.3328,2.3352,2.3391,2.347,2.3506,2.3535,2.3574,2.3589,2.3588,2.3594,2.3623,2.3626,2.3629,2.3642,2.3646,2.3592,2.3592,2.3592,0,2.2973,2.3039,2.3076,2.312,2.3151,2.318,2.3222,2.3256,2.3323,2.3344,2.3343,2.3443,2.3481,2.3544,2.3554,2.3577,2.3589,2.3581,2.3623,2.3626,2.3629,2.3642,2.3647,2.3591,2.3591,2.3592,2.3592,0,2.303,2.3076,2.3102,2.3166,2.32,2.3243,2.3286,2.3316,2.3336,2.3367,2.3424,2.347,2.3526,2.3543,2.3563,2.361,2.3608,2.3615,2.3613,2.3632,2.3645,2.365,2.3591,2.3591,2.3591,2.3591,0,0,2.3041,2.3125,2.3134,2.3163,2.3226,2.3262,2.3306,2.336,2.3385,2.343,2.3468,2.3534,2.354,2.3573,2.3598,2.3623,2.365,2.3627,2.3629,2.3629,2.3703,2.3697,2.3702,2.3661,2.3662,2.3663,2.3698,0,2.3074,2.3153,2.3187,2.3251,2.3293,2.3321,2.336,2.3402,2.3433,2.3473,2.3507,2.3552,2.3558,2.3578,2.3604,2.3641,2.3665,2.3639,2.3695,2.3697,2.368,2.3709,2.3702,2.3733,2.3703,2.3704,2.3705,0,2.3122,2.3168,2.3235,2.3293,2.3312,2.3345,2.3397,2.3436,2.3484,2.3505,2.3541,2.3565,2.3611,2.3607,2.3672,2.3653,2.3678,2.3699,2.3702,2.3707,2.3701,2.3714,2.3744,2.3748,2.3713,2.3713,2.3712,0,2.3122,2.32,2.3251,2.3275,2.3344,2.3366,2.3396,2.3444,2.3475,2.352,2.354,2.359,2.3617,2.3656,2.3692,2.3686,2.3753,2.3752,2.377,2.3769,2.3782,2.3781,2.3816,2.38,2.38,2.38,2.38,0,2.3154,2.3194,2.3251,2.3282,2.3328,2.3367,2.3411,2.3443,2.3485,2.3522,2.3551,2.3585,2.3631,2.3671,2.37,2.3749,2.3761,2.3778,2.3785,2.3775,2.3773,2.3791,2.379,2.3801,2.3801,2.3801,2.3801,0,2.3161,2.3201,2.3258,2.3318,2.3334,2.3365,2.3417,2.3448,2.3479,2.3526,2.3539,2.3589,2.3638,2.3678,2.3742,2.3761,2.3812,2.382,2.3795,2.3798,2.3814,2.3812,2.3862,2.387,2.3849,2.3849,2.385,0,2.3178,2.3209,2.3273,2.33,2.3329,2.3373,2.3403,2.3443,2.3474,2.3532,2.3556,2.3606,2.3649,2.3725,2.3767,2.3816,2.3826,2.384,2.3833,2.3822,2.3825,2.3822,2.3825,2.384,2.384,2.384,2.384,0,2.3204,2.3222,2.3265,2.3316,2.3351,2.3393,2.3435,2.3455,2.3503,2.3536,2.3586,2.3619,2.3684,2.3734,2.3787,2.3818,2.3837,2.3842,2.3849,2.3838,2.3822,2.383,2.3795,2.384,2.384,2.384,2.384,2.384,2.3216,2.3245,2.3294,2.3341,2.3377,2.3416,2.3447,2.3483,2.3526,2.3582,2.3603,2.3654,2.3702,2.3775,2.3806,2.3846,2.3848,2.3858,2.3861,2.3862,2.386,2.3816,2.3856,2.3856,2.3856,2.3856,2.3856,0,2.3242,2.3275,2.3318,2.3376,2.3413,2.3428,2.3475,2.3505,2.355,2.3593,2.3634,2.3691,2.374,2.3785,2.3836,2.3859,2.3869,2.3871,2.3869,2.3876,2.3856,2.3845,2.3862,2.3862,2.3862,2.3862,2.3862,2.3862,2.326,2.331,2.3334,2.3401,2.3434,2.3484,2.351,2.3545,2.358,2.3643,2.3683,2.3712,2.3756,2.381,2.3855,2.3867,2.3884,2.3884,2.3898,2.3879,2.3877,2.3876,2.3866,2.3887,2.3887,2.3914,2.3915,2.3915]},{"header":{"parameterUnit":"m.s-1","parameterCategory":1,"la1":30.2991,"la2":30.254,"lo1":-89.0895,"lo2":-89.0444,"dy":0.0017,"dx":0.0017,"nx":28,"ny":28,"refTime":"2025-07-07T03:00:00:Z","depth":0,"parameterNumber":3,"parameterNumberName":"V-component_of_WINDS"},"data":[0,0,0,0,0,0,0,0,0,0,0,0,0,0,0,0,0,0,0,0,0,0,0,0,0,0,0,0,0,0,0,0,0,0,0,0,0,0,0,0,0,0,0,0,0,0,0,0,0,0,0,0,0,0,0,0,0,0,2.9262,2.9262,0,2.9246,2.9246,2.9246,2.9191,2.919,2.9188,2.9187,2.9171,2.9172,2.9173,0,0,0,0,0,0,0,0,0,0,0,0,0,2.9246,2.9247,2.9262,2.9262,2.9262,2.9246,2.9246,2.9246,2.9191,2.9189,2.9188,2.9187,2.9171,2.9172,2.9173,0,0,0,0,0,0,0,0,0,0,0,0,0,2.9244,2.9247,2.9262,2.9233,2.923,2.9246,2.9246,2.9246,2.9191,2.9189,2.9188,2.9186,2.9171,2.9172,2.9173,2.9217,0,0,2.9176,2.9177,0,0,0,0,0,0,0,0,2.9244,2.9245,2.9237,2.9235,2.9231,2.9219,2.9234,2.9236,2.9192,2.9206,2.9187,2.9185,2.9189,2.9188,2.9189,2.9216,2.9216,2.9177,2.9177,2.9178,2.9178,0,0,0,0,0,0,0,2.9244,2.9245,2.9256,2.9237,2.9234,2.922,2.9218,2.9235,2.9208,2.9205,2.9201,2.9199,2.9187,2.9188,2.9189,2.9216,2.9176,2.9177,2.9178,2.9179,2.9279,2.9281,0,0,0,0,0,0,2.9249,2.9245,2.9256,2.9255,2.9233,2.9222,2.9219,2.9225,2.9208,2.9203,2.9201,2.9197,2.9187,2.9187,2.9188,2.9238,2.9178,2.9179,2.9179,2.9277,2.9279,2.9281,0,0,0,0,0,0,2.9248,2.925,2.9257,2.9249,2.9249,2.9224,2.9231,2.9225,2.9227,2.9205,2.92,2.9207,2.9186,2.9186,2.921,2.9237,2.9179,2.918,2.9274,2.9277,2.928,2.934,0,0,0,0,0,0,2.9248,2.925,2.9267,2.925,2.925,2.928,2.9232,2.9226,2.9229,2.9223,2.921,2.9206,2.9184,2.9209,2.9211,2.9237,2.9181,2.9272,2.9276,2.9279,2.9335,2.9345,2.9352,0,0,0,0,0,2.9248,2.9284,2.9268,2.9269,2.9269,2.9281,2.9281,2.9256,2.9231,2.9247,2.9234,2.9206,2.9234,2.9212,2.9214,2.9241,2.927,2.9275,2.9279,2.9332,2.9343,2.9352,0,0,0,0,0,0,2.9304,2.9281,2.9263,2.9295,2.929,2.9272,2.9292,2.9269,2.9271,2.9266,2.9235,2.9232,2.9261,2.9253,2.9229,2.9283,2.9247,2.9253,2.9287,2.9297,2.9305,2.9306,2.9182,0,0,0,0,0,2.932,2.9332,2.9311,2.9341,2.934,2.9317,2.9321,2.9302,2.9296,2.9294,2.9282,2.9277,2.9285,2.9291,2.9297,2.9334,2.9331,2.9354,2.9363,2.937,2.9374,2.9394,2.9404,2.9296,2.9296,2.9296,0,0,2.9354,2.9343,2.9352,2.9352,2.9347,2.9359,2.9315,2.933,2.9339,2.9296,2.9318,2.9309,2.9302,2.9334,2.9347,2.9328,2.9404,2.9375,2.9381,2.9382,2.94,2.941,2.9419,2.9299,2.9298,2.9298,0,0,2.9421,2.9414,2.9438,2.9434,2.9426,2.941,2.9416,2.9401,2.9394,2.9415,2.9383,2.9394,2.9408,2.9404,2.9405,2.9472,2.9447,2.9475,2.9519,2.9538,2.9547,2.9554,2.9578,2.9587,2.948,2.948,2.948,0,2.9463,2.9481,2.9454,2.9471,2.9472,2.9434,2.9459,2.9456,2.9451,2.9453,2.9432,2.9449,2.9442,2.9472,2.9488,2.949,2.9496,2.9476,2.9548,2.9555,2.9562,2.9584,2.9593,2.9483,2.9483,2.9483,2.9482,0,2.9533,2.9546,2.9567,2.9563,2.9567,2.9588,2.9564,2.9571,2.9553,2.9539,2.9562,2.9552,2.9556,2.9562,2.9543,2.9589,2.9578,2.9553,2.9517,2.9576,2.9596,2.9605,2.9488,2.9487,2.9486,2.9485,0,0,2.9634,2.9616,2.9624,2.9622,2.9611,2.962,2.964,2.9643,2.965,2.9648,2.9664,2.9677,2.9655,2.9655,2.9636,2.9653,2.9707,2.9626,2.9626,2.9642,2.9758,2.9776,2.9786,2.9691,2.9693,2.9694,2.9758,0,2.9698,2.973,2.9707,2.9743,2.9755,2.9719,2.9736,2.9732,2.972,2.9729,2.9716,2.9726,2.9695,2.9695,2.9711,2.9698,2.973,2.9693,2.9705,2.9706,2.9708,2.9797,2.9816,2.9878,2.9766,2.9767,2.9768,0,2.9776,2.9778,2.9815,2.9802,2.9806,2.9822,2.9824,2.9832,2.9827,2.9817,2.9818,2.9795,2.9814,2.9779,2.9804,2.9779,2.9783,2.9778,2.978,2.978,2.974,2.9799,2.9896,2.9906,2.9781,2.978,2.9779,0,2.9846,2.9857,2.9881,2.9881,2.9867,2.9879,2.9873,2.9866,2.987,2.9871,2.9874,2.9878,2.988,2.9884,2.9862,2.9839,2.9891,2.9854,2.9883,2.9884,2.9895,2.9895,2.9995,2.9899,2.9899,2.9899,2.9899,0,2.9918,2.9943,2.9912,2.9927,2.9954,2.9927,2.9954,2.9945,2.9939,2.9952,2.9922,2.9934,2.9906,2.9916,2.9899,2.9923,2.9924,2.9917,2.9912,2.992,2.9921,2.9921,2.9917,2.9901,2.9901,2.99,2.99,0,3.0,2.9981,3.0005,2.999,2.9987,3.0007,2.9994,3.0007,2.9994,3.0011,3.0013,2.9992,3.0003,2.9982,2.9989,2.9978,3.0012,3.0001,3.0014,3.001,3.0041,3.0039,3.0145,3.0157,3.0054,3.0055,3.0056,0,3.0048,3.0066,3.0053,3.0059,3.0056,3.0066,3.007,3.0045,3.0051,3.0046,3.006,3.0068,3.0072,3.009,3.0076,3.0082,3.007,3.0107,3.0071,3.0078,3.0071,3.007,3.0072,3.0114,3.0116,3.0117,3.0118,0,3.0134,3.0124,3.013,3.0134,3.014,3.0142,3.0141,3.0148,3.0122,3.0129,3.0139,3.0143,3.0151,3.0159,3.0161,3.0156,3.0133,3.0129,3.0136,3.0144,3.015,3.0147,3.0034,3.0127,3.0126,3.0125,3.0125,3.0124,3.02,3.0214,3.0208,3.0217,3.0214,3.0214,3.0226,3.0215,3.0223,3.0227,3.0212,3.0226,3.0221,3.0221,3.0219,3.0229,3.0213,3.0223,3.0226,3.0229,3.0234,3.0149,3.023,3.023,3.0229,3.0229,3.0229,0,3.0284,3.0279,3.0287,3.0288,3.0295,3.0273,3.0271,3.0279,3.0291,3.0288,3.0294,3.0306,3.0314,3.0301,3.0306,3.0317,3.0307,3.032,3.0319,3.0318,3.0248,3.0241,3.0328,3.0328,3.0328,3.0328,3.0328,3.0328,3.0329,3.0353,3.0342,3.0364,3.0358,3.0371,3.0373,3.0373,3.0371,3.0386,3.0392,3.0384,3.0377,3.0382,3.0389,3.0385,3.0388,3.0405,3.0397,3.0332,3.0323,3.0313,3.0307,3.0406,3.0406,3.0466,3.0467,3.0467]}]]